Location: Dampvalley
(47.9094°N, 6.1967°E)
Time: 13:24:00
(UTC+00:00)

deb Chang Zheng 4 - Pass Details

Date: 05 March 2021
Orbit: 601 x 620 km, 98.6° (Epoch: 19 April)

Event Time Altitude Azimuth Distance (km) Brightness Sun altitude
Rises 05:11:21 0° 14° (NNE) 2,882 7.2 -10.3°
Reaches altitude 10° 05:13:32 10° 15° (NNE) 1,977 6.4 -10.0°
Maximum altitude 05:17:51 85° 106° (ESE) 622 3.6 -9.3°
Drops below altitude 10° 05:22:09 10° 194° (SSW) 1,974 6.0 -8.5°
Sets 05:24:19 0° 195° (SSW) 2,878 6.8 -8.2°
